| time (UTC) | temp C | wind direction | speed KPH | gust KPH | rain 1hr cm | rain 24hr cm | rain mn cm | humidity % | barometer mb |
| 20260507145536 | 8 | 306 | 8.0 | 12.9 | 0.00 | 0.03 | 0.00 | 68 | 1015.2 |
| 20260507144538 | 8 | 230 | 12.9 | 16.1 | 0.00 | 0.03 | 0.00 | 68 | 1015.1 |
| 20260507143536 | 8 | 275 | 12.9 | 16.1 | 0.00 | 0.03 | 0.00 | 69 | 1015.2 |
| 20260507142536 | 8 | 304 | 16.1 | 19.3 | 0.00 | 0.03 | 0.00 | 73 | 1015.3 |
| 20260507141538 | 7 | 283 | 4.8 | 6.4 | 0.00 | 0.03 | 0.00 | 75 | 1015.2 |
| 20260507140534 | 7 | 283 | 8.0 | 9.7 | 0.00 | 0.03 | 0.00 | 77 | 1015.4 |
| 20260507135534 | 8 | 258 | 3.2 | 4.8 | 0.00 | 0.05 | 0.00 | 81 | 1015.6 |
| 20260507134539 | 7 | 300 | 0.0 | 0.0 | 0.00 | 0.05 | 0.00 | 83 | 1015.6 |
| 20260507133534 | 7 | 360 | 0.0 | 0.0 | 0.00 | 0.05 | 0.00 | 83 | 1015.6 |
| 20260507131636 | 7 | 67 | 0.0 | 1.6 | 0.00 | 0.05 | 0.00 | 88 | 1015.5 |
| 20260507130734 | 6 | 22 | 0.0 | 3.2 | 0.00 | 0.05 | 0.00 | 90 | 1015.6 |
| 20260507125735 | 5 | 315 | 3.2 | 4.8 | 0.00 | 0.05 | 0.00 | 92 | 1015.5 |
| 20260507124735 | 5 | 270 | 8.0 | 11.3 | 0.00 | 0.05 | 0.00 | 93 | 1015.6 |
| 20260507123734 | 5 | 307 | 9.7 | 16.1 | 0.00 | 0.08 | 0.00 | 96 | 1015.6 |
| 20260507122738 | 4 | 292 | 8.0 | 11.3 | 0.00 | 0.08 | 0.00 | 98 | 1015.7 |
| 20260507121836 | 3 | 247 | 3.2 | 3.2 | 0.00 | 0.08 | 0.00 | 98 | 1015.5 |
| 20260507120836 | 3 | 157 | 0.0 | 0.0 | 0.00 | 0.10 | 0.00 | 99 | 1015.4 |
| 20260507115837 | 3 | 157 | 0.0 | 0.0 | 0.00 | 0.10 | 0.00 | 98 | 1015.4 |
| 20260507113836 | 3 | 157 | 0.0 | 0.0 | 0.00 | 0.13 | 0.00 | 99 | 1015.3 |
| 20260507112934 | 2 | 157 | 0.0 | 0.0 | 0.00 | 0.15 | 0.00 | 98 | 1015.0 |
| 20260507111938 | 2 | 157 | 0.0 | 1.6 | 0.00 | 0.18 | 0.00 | 98 | 1015.0 |
| 20260507111036 | 2 | 157 | 0.0 | 1.6 | 0.00 | 0.20 | 0.00 | 98 | 1014.8 |
| 20260507105036 | 1 | 157 | 0.0 | 0.0 | 0.00 | 0.23 | 0.00 | 99 | 1014.4 |
| 20260507104037 | 2 | 157 | 0.0 | 0.0 | 0.00 | 0.25 | 0.00 | 98 | 1014.3 |
| 20260507101035 | 1 | 225 | 0.0 | 0.0 | 0.00 | 0.30 | 0.00 | 99 | 1014.2 |
| 20260507100050 | 1 | 225 | 0.0 | 0.0 | 0.00 | 0.33 | 0.00 | 99 | 1014.1 |
| 20260507095037 | 0 | 225 | 0.0 | 0.0 | 0.00 | 0.36 | 0.00 | 97 | 1014.0 |
| 20260507094034 | 0 | 225 | 0.0 | 0.0 | 0.00 | 0.38 | 0.00 | 97 | 1014.1 |
| 20260507093038 | 0 | 225 | 0.0 | 0.0 | 0.00 | 0.41 | 0.00 | 98 | 1014.0 |
| 20260507092937 | 0 | 225 | 0.0 | 0.0 | 0.00 | 0.43 | 0.00 | 98 | 1014.0 |
| 20260507091938 | 0 | 225 | 0.0 | 0.0 | 0.00 | 0.43 | 0.00 | 98 | 1014.1 |
| 20260507091036 | 0 | 225 | 0.0 | 0.0 | 0.00 | 0.48 | 0.00 | 98 | 1014.1 |
| 20260507090038 | 1 | 225 | 0.0 | 0.0 | 0.00 | 0.53 | 0.00 | 97 | 1014.1 |
| 20260507085037 | 0 | 225 | 0.0 | 0.0 | 0.00 | 0.56 | 0.00 | 97 | 1014.2 |
| 20260507084936 | 0 | 225 | 0.0 | 0.0 | 0.00 | 0.56 | 0.00 | 97 | 1014.1 |
| 20260507084034 | 0 | 225 | 0.0 | 0.0 | 0.00 | 0.58 | 0.00 | 98 | 1014.1 |
| 20260507083039 | 1 | 225 | 0.0 | 0.0 | 0.00 | 0.64 | 0.00 | 98 | 1014.3 |
| 20260507081037 | 0 | 225 | 0.0 | 0.0 | 0.00 | 0.69 | 0.00 | 97 | 1014.4 |
| 20260507080036 | 1 | 225 | 0.0 | 0.0 | 0.00 | 0.71 | 0.00 | 97 | 1014.3 |
| 20260507075036 | 1 | 225 | 0.0 | 0.0 | 0.00 | 0.71 | 0.00 | 97 | 1014.4 |
| 20260507074035 | 1 | 225 | 0.0 | 0.0 | 0.00 | 0.76 | 0.00 | 97 | 1014.2 |
| 20260507073038 | 2 | 225 | 0.0 | 0.0 | 0.00 | 0.76 | 0.00 | 97 | 1014.2 |
| 20260507072036 | 2 | 225 | 0.0 | 0.0 | 0.00 | 0.79 | 0.00 | 97 | 1014.3 |
| 20260507071036 | 2 | 225 | 0.0 | 1.6 | 0.00 | 0.81 | 0.00 | 97 | 1014.5 |
| 20260507070053 | 2 | 247 | 0.0 | 0.0 | 0.00 | 0.84 | 0.00 | 97 | 1014.6 |
| 20260507065135 | 2 | 247 | 0.0 | 0.0 | 0.00 | 0.86 | 0.00 | 96 | 1014.8 |
| 20260507064135 | 2 | 247 | 0.0 | 0.0 | 0.00 | 0.89 | 0.00 | 96 | 1015.0 |
| 20260507063234 | 3 | 247 | 0.0 | 0.0 | 0.00 | 0.97 | 0.00 | 95 | 1015.0 |
| 20260507062236 | 3 | 247 | 0.0 | 0.0 | 0.00 | 1.04 | 0.00 | 95 | 1014.9 |
| 20260507061236 | 3 | 247 | 0.0 | 0.0 | 0.00 | 1.12 | 0.00 | 96 | 1015.0 |
| 20260507060336 | 3 | 247 | 0.0 | 0.0 | 0.00 | 1.22 | 0.00 | 96 | 1015.0 |
| 20260507054337 | 4 | 247 | 0.0 | 0.0 | 0.00 | 1.32 | 0.00 | 95 | 1015.2 |
| 20260507053334 | 4 | 247 | 0.0 | 0.0 | 0.00 | 1.35 | 0.00 | 95 | 1015.2 |
| 20260507052335 | 4 | 247 | 0.0 | 0.0 | 0.00 | 1.40 | 0.00 | 94 | 1015.5 |
| 20260507051335 | 4 | 247 | 0.0 | 0.0 | 0.00 | 1.42 | 0.00 | 95 | 1015.5 |
| 20260507051237 | 4 | 247 | 0.0 | 0.0 | 0.00 | 1.45 | 0.00 | 95 | 1015.5 |
| 20260507045336 | 5 | 247 | 0.0 | 0.0 | 0.00 | 1.55 | 0.00 | 94 | 1015.6 |
| 20260507044350 | 5 | 270 | 0.0 | 0.0 | 0.00 | 1.60 | 0.00 | 94 | 1015.7 |
| 20260507043436 | 5 | 270 | 0.0 | 0.0 | 0.00 | 1.63 | 0.00 | 95 | 1015.5 |
| 20260507042435 | 5 | 270 | 0.0 | 0.0 | 0.00 | 1.65 | 0.00 | 94 | 1015.7 |
| 20260507041434 | 5 | 270 | 0.0 | 0.0 | 0.00 | 1.68 | 0.00 | 93 | 1015.8 |
| 20260507040436 | 5 | 270 | 0.0 | 0.0 | 0.00 | 1.68 | 0.00 | 93 | 1015.7 |
| 20260507034542 | 5 | 270 | 0.0 | 0.0 | 0.00 | 1.73 | 1.68 | 93 | 1015.5 |
| 20260507033543 | 5 | 270 | 0.0 | 0.0 | 0.00 | 1.75 | 1.68 | 93 | 1015.4 |
| 20260507032642 | 5 | 292 | 0.0 | 0.0 | 0.00 | 1.78 | 1.68 | 94 | 1015.5 |
| 20260507030743 | 5 | 292 | 0.0 | 0.0 | 0.00 | 1.83 | 1.68 | 94 | 1015.8 |
| 20260507025743 | 5 | 281 | 1.6 | 1.6 | 0.00 | 1.88 | 1.68 | 92 | 1015.7 |
| 20260507024743 | 5 | 288 | 1.6 | 4.8 | 0.00 | 1.91 | 1.68 | 93 | 1015.6 |
| 20260507023743 | 5 | 292 | 0.0 | 1.6 | 0.00 | 1.93 | 1.68 | 93 | 1015.4 |
| 20260507022841 | 5 | 292 | 0.0 | 0.0 | 0.00 | 1.96 | 1.68 | 93 | 1015.4 |
| 20260507022743 | 5 | 292 | 0.0 | 0.0 | 0.00 | 1.96 | 1.68 | 93 | 1015.3 |
| 20260507021742 | 5 | 292 | 0.0 | 1.6 | 0.00 | 2.01 | 1.68 | 92 | 1015.5 |
| 20260507020743 | 5 | 292 | 0.0 | 0.0 | 0.00 | 2.03 | 1.68 | 93 | 1015.5 |
| 20260507014741 | 5 | 270 | 1.6 | 3.2 | 0.00 | 2.06 | 1.68 | 93 | 1015.7 |
| 20260507014643 | 5 | 270 | 1.6 | 3.2 | 0.00 | 2.06 | 1.68 | 92 | 1015.7 |
| 20260507013643 | 5 | 270 | 3.2 | 4.8 | 0.00 | 2.08 | 1.68 | 93 | 1015.8 |
| 20260507012742 | 5 | 270 | 3.2 | 4.8 | 0.00 | 2.11 | 1.68 | 93 | 1015.6 |
| 20260507011743 | 5 | 270 | 1.6 | 3.2 | 0.00 | 2.13 | 1.68 | 93 | 1015.6 |
| 20260507010659 | 5 | 292 | 1.6 | 1.6 | 0.00 | 2.16 | 1.68 | 93 | 1015.3 |
| 20260507005642 | 5 | 292 | 0.0 | 0.0 | 0.00 | 2.21 | 1.68 | 93 | 1015.4 |
| 20260507004642 | 5 | 292 | 0.0 | 0.0 | 0.00 | 2.24 | 1.68 | 93 | 1015.4 |
| 20260507003742 | 5 | 292 | 0.0 | 0.0 | 0.00 | 2.26 | 1.68 | 92 | 1015.3 |
| 20260507002743 | 5 | 292 | 0.0 | 0.0 | 0.00 | 2.31 | 1.68 | 91 | 1015.2 |
| 20260507000743 | 6 | 292 | 3.2 | 3.2 | 0.00 | 2.39 | 1.68 | 92 | 1014.7 |
| 20260506235742 | 6 | 292 | 1.6 | 1.6 | 0.00 | 2.41 | 1.68 | 91 | 1014.8 |
| 20260506234842 | 6 | 270 | 1.6 | 3.2 | 0.00 | 2.41 | 1.68 | 91 | 1014.6 |
| 20260506233841 | 6 | 315 | 1.6 | 1.6 | 0.00 | 2.46 | 1.68 | 93 | 1014.5 |
| 20260506232844 | 6 | 292 | 6.4 | 8.0 | 0.00 | 2.51 | 1.68 | 92 | 1014.8 |
| 20260506231844 | 6 | 299 | 4.8 | 6.4 | 0.00 | 2.54 | 1.68 | 94 | 1014.8 |
| 20260506230841 | 6 | 282 | 1.6 | 6.4 | 0.00 | 2.59 | 1.68 | 94 | 1014.6 |
| 20260506225842 | 6 | 309 | 6.4 | 9.7 | 0.00 | 2.64 | 1.68 | 93 | 1014.5 |
| 20260506224844 | 6 | 283 | 3.2 | 6.4 | 0.00 | 2.74 | 1.68 | 94 | 1014.6 |
| 20260506223941 | 6 | 270 | 9.7 | 9.7 | 0.00 | 2.82 | 1.68 | 93 | 1014.5 |
| 20260506221944 | 6 | 304 | 9.7 | 11.3 | 0.00 | 2.92 | 1.68 | 92 | 1014.1 |
| 20260506221040 | 6 | 281 | 8.0 | 9.7 | 0.00 | 2.97 | 1.68 | 91 | 1013.8 |
| 20260506220043 | 6 | 304 | 8.0 | 11.3 | 0.00 | 3.05 | 1.68 | 90 | 1013.8 |
| 20260506215043 | 6 | 277 | 11.3 | 12.9 | 0.00 | 3.07 | 1.68 | 89 | 1013.7 |
| 20260506214043 | 7 | 258 | 12.9 | 12.9 | 0.00 | 3.12 | 1.68 | 85 | 1013.5 |
| 20260506213142 | 7 | 270 | 16.1 | 19.3 | 0.00 | 3.15 | 1.68 | 83 | 1013.5 |
| 20260506211143 | 9 | 270 | 20.9 | 33.8 | 0.00 | 3.35 | 1.68 | 76 | 1012.9 |
| 20260506210142 | 10 | 281 | 14.5 | 16.1 | 0.00 | 3.35 | 1.68 | 78 | 1012.9 |
| 20260506205142 | 9 | 270 | 17.7 | 17.7 | 0.00 | 3.38 | 1.68 | 77 | 1012.6 |
| 20260506203142 | 10 | 247 | 8.0 | 8.0 | 0.00 | 3.38 | 1.68 | 75 | 1012.9 |
| 20260506201142 | 10 | 274 | 12.9 | 17.7 | 0.00 | 3.38 | 1.68 | 75 | 1012.9 |
| 20260506200241 | 10 | 283 | 11.3 | 16.1 | 0.00 | 3.38 | 1.68 | 75 | 1012.8 |
| 20260506195243 | 10 | 293 | 11.3 | 12.9 | 0.00 | 3.38 | 1.68 | 75 | 1012.8 |
| 20260506194243 | 10 | 255 | 11.3 | 12.9 | 0.00 | 3.38 | 1.68 | 78 | 1012.8 |
| 20260506193342 | 10 | 300 | 12.9 | 16.1 | 0.00 | 3.38 | 1.68 | 79 | 1012.9 |
| 20260506192343 | 10 | 304 | 14.5 | 19.3 | 0.00 | 3.38 | 1.68 | 80 | 1012.9 |
| 20260506191441 | 10 | 277 | 9.7 | 11.3 | 0.00 | 3.38 | 1.68 | 81 | 1012.8 |
| 20260506184443 | 9 | 307 | 8.0 | 9.7 | 0.00 | 3.38 | 1.68 | 90 | 1012.6 |
| 20260506183344 | 9 | 225 | 0.0 | 0.0 | 0.00 | 3.38 | 1.68 | 92 | 1012.8 |
| 20260506182441 | 8 | 67 | 0.0 | 0.0 | 0.00 | 3.38 | 1.68 | 92 | 1012.8 |
| 20260506181442 | 8 | 30 | 1.6 | 3.2 | 0.03 | 3.38 | 1.68 | 93 | 1012.9 |
| 20260506180442 | 7 | 337 | 0.0 | 1.6 | 0.03 | 3.38 | 1.68 | 94 | 1012.8 |
| 20260506175541 | 7 | 270 | 8.0 | 9.7 | 0.03 | 3.38 | 1.68 | 95 | 1012.8 |
| 20260506174541 | 7 | 315 | 3.2 | 4.8 | 0.03 | 3.38 | 1.68 | 94 | 1012.9 |
| 20260506172542 | 7 | 343 | 3.2 | 9.7 | 0.03 | 3.38 | 1.68 | 94 | 1012.7 |
| 20260506171641 | 7 | 292 | 8.0 | 8.0 | 0.00 | 3.35 | 1.65 | 93 | 1012.8 |
| 20260506165741 | 7 | 300 | 8.0 | 11.3 | 0.00 | 3.35 | 1.65 | 95 | 1012.7 |
| 20260506164743 | 7 | 307 | 3.2 | 4.8 | 0.00 | 3.35 | 1.65 | 95 | 1012.6 |
| 20260506163744 | 8 | 348 | 1.6 | 3.2 | 0.00 | 3.35 | 1.65 | 95 | 1012.5 |
| 20260506161842 | 8 | 7 | 6.4 | 8.0 | 0.00 | 3.35 | 1.65 | 97 | 1012.2 |
| 20260506160843 | 7 | 315 | 1.6 | 4.8 | 0.00 | 3.35 | 1.65 | 98 | 1012.3 |
| 20260506155842 | 7 | 45 | 3.2 | 3.2 | 0.00 | 3.35 | 1.65 | 97 | 1012.3 |
| 20260506154940 | 7 | 315 | 4.8 | 6.4 | 0.00 | 3.35 | 1.65 | 98 | 1012.2 |
| 20260506154040 | 7 | 292 | 0.0 | 0.0 | 0.00 | 3.35 | 1.65 | 98 | 1012.1 |
| 20260506153043 | 7 | 354 | 0.0 | 1.6 | 0.00 | 3.35 | 1.65 | 99 | 1012.2 |
| 20260506152043 | 7 | 45 | 0.0 | 0.0 | 0.00 | 3.35 | 1.65 | 99 | 1012.1 |